Regional Weather Roundup
Issued by NWS

Home | Current Version | Previous Version | Graphics & Text | Print | Product List | Glossary On
Versions: 1 2 3 4 5 6 7 8 9 10 11 12 13 14 15 16 17 18 19 20 21 22 23 24 25 26 27 28 29 30 31 32 33 34 35 36 37 38 39 40 41 42 43 44 45 46 47 48 49 50
000
ASUS43 KOAX 230010
RWRNE

WEATHER ROUNDUP FOR NEBRASKA
NATIONAL WEATHER SERVICE OMAHA NE
600 PM CST SAT NOV 22 2014

NOTES: SATELLITE DATA IS BEING USED TO AUGMENT CLOUD COVER ABOVE
       12000 FEET.
       "FAIR" INDICATES FEW OR NO CLOUDS BELOW 12,000 FEET WITH NO
       SIGNIFICANT WEATHER AND/OR OBSTRUCTIONS TO VISIBILITY.

  * THESE STATIONS DO NOT REPORT WEATHER SUCH AS RAIN...SNOW OR FOG.

NEZ001>004-019>022-054>056-230100-
NEBRASKA PANHANDLE

CITY           SKY/WX    TMP DP  RH WIND       PRES   REMARKS
SCOTTSBLUFF    CLOUDY    52  31  44 W17G25    29.55S
6HR MIN TEMP:  52; 6HR MAX TEMP:  59; 6HR PCP: TRACE;

ALLIANCE       CLOUDY    54  28  36 W23G36    29.53R
6HR MIN TEMP:  50; 6HR MAX TEMP:  61;

CHADRON        CLOUDY    46  30  53 NW5       29.47S
6HR MIN TEMP:  46; 6HR MAX TEMP:  60;

KIMBALL        CLOUDY    52  18  26 W10       29.56S
SIDNEY         CLOUDY    47  18  31 NW9       29.56F
6HR MIN TEMP:  47; 6HR MAX TEMP:  63;

$$

NEZ057>060-069>072-079>082-230100-
SOUTHWEST NEBRASKA

CITY           SKY/WX    TMP DP  RH WIND       PRES   REMARKS
NORTH PLATTE   MOCLDY    40  23  50 E6        29.52F
6HR MIN TEMP:  40; 6HR MAX TEMP:  69;

IMPERIAL       MOCLDY    49  13  23 N5        29.52S HAZE
6HR MIN TEMP:  48; 6HR MAX TEMP:  69;

LEXINGTON      MOCLDY    50  31  48 SE7       29.53S
MCCOOK         PTCLDY    55  22  27 S10       29.51S
6HR MIN TEMP:  55; 6HR MAX TEMP:  71;

OGALLALA       MOCLDY    43  19  38 W3        29.52S
$$

NEZ005>010-023>029-035>040-094-230100-
NORTH CENTRAL NEBRASKA

CITY           SKY/WX    TMP DP  RH WIND       PRES   REMARKS
VALENTINE      CLOUDY    48  28  46 NW7       29.46S
6HR MIN TEMP:  47; 6HR MAX TEMP:  66;

AINSWORTH      CLOUDY    52  26  37 SW9       29.47S
BROKEN BOW     MOCLDY    52  28  39 S12       29.53S
6HR MIN TEMP:  51; 6HR MAX TEMP:  66;

O`NEILL        CLOUDY    52  32  46 S10G16    29.49R
ORD            MOCLDY    47  27  45 S8        29.52S
6HR MIN TEMP:  47; 6HR MAX TEMP:  63;

THEDFORD       MOCLDY    54  21  28 S8        29.50S
$$

NEZ041-046>049-061>064-073>077-083>087-230100-
SOUTH CENTRAL NEBRASKA

CITY           SKY/WX    TMP DP  RH WIND       PRES   REMARKS
AURORA         CLEAR     50  39  67 S7        29.56R
HASTINGS       CLEAR     51  36  56 S5        29.55F
6HR MIN TEMP:  43; 6HR MAX TEMP:  57;

HEBRON         MOCLDY    55  49  82 S9        29.60S
HOLDREGE       PTCLDY    47  32  55 S6        29.54F
KEARNEY *      PTCLDY    46  32  57 CALM      29.58R
YORK           CLEAR     48  41  76 S8        29.56F
$$

NEZ011>018-030>034-042>045-230100-
NORTHEAST NEBRASKA

CITY           SKY/WX    TMP DP  RH WIND       PRES   REMARKS
NORFOLK        MOCLDY    47  40  76 S16       29.53F
6HR MIN TEMP:  45; 6HR MAX TEMP:  48;

ALBION         PTCLDY    42  32  69 S3        29.55S
BLAIR          CLOUDY    54  48  82 S20G26    29.59F
COLUMBUS *     PTCLDY    39  36  87 CALM      29.58S
FREMONT        PTCLDY    51  46  84 SE10      29.58F
TEKAMAH        PTCLDY    45  40  82 S10       29.58F
6HR MIN TEMP:  42; 6HR MAX TEMP:  53;

WAYNE          PTCLDY    40  37  87 S7        29.55S
$$

NEZ050>053-065>068-078-088>093-230100-
SOUTHEAST NEBRASKA

CITY           SKY/WX    TMP DP  RH WIND       PRES   REMARKS
LINCOLN        CLOUDY    55  50  83 S16       29.60F
6HR MIN TEMP:  43; 6HR MAX TEMP:  58;

OMAHA EPPLEY   CLOUDY    54  50  86 S16       29.61F
6HR MIN TEMP:  42; 6HR MAX TEMP:  58;

BEATRICE       CLOUDY    56  53  91 S13G23    29.63S
FALLS CITY     CLOUDY    57  54  89 S14       29.67F
6HR MIN TEMP:  54; 6HR MAX TEMP:  57;

NEBRASKA CITY  CLOUDY    55  55  99 S12       29.65F FOG
PLATTSMOUTH    CLOUDY    54  51  91 S14       29.63F
$$

NEZ044-045-051>053-067-230100-
OMAHA AREA

CITY           SKY/WX    TMP DP  RH WIND       PRES   REMARKS
OMAHA EPPLEY   CLOUDY    54  50  86 S16       29.61F
6HR MIN TEMP:  42; 6HR MAX TEMP:  58;

BLAIR          CLOUDY    54  48  82 S20G26    29.59F
FREMONT        PTCLDY    51  46  84 SE10      29.58F
MILLARD        CLOUDY    55  50  83 S10G16    29.60F
OFFUTT AFB     CLOUDY    54  51  90 SE12      29.62F
PLATTSMOUTH    CLOUDY    54  51  91 S14       29.63F
WAHOO          MOCLDY    50  46  84 S14       29.58F
$$



USA.gov is the U.S. government's official web portal to all federal, state and local government web resources and services.